{"data":{"norad_id":66580,"intl_designator":"2025-268Z","name":"STARLINK-35872","alt_names":[],"object_type":"PAYLOAD","status":"ACTIVE","operator":null,"country":"US","launch_date":"2025-11-21","launch_site_code":"AFETR","launch_vehicle":null,"mission":null,"orbit_class":"UNKNOWN","rcs_meters":null,"size_class":null,"mass_kg":null,"dimensions":null,"purposes":["comms"],"wikipedia_slug":null,"has_3d_model":false,"image_url":null,"decayed_at":null,"tle_current":{"epoch":"2026-09-20T05:30:22.234464Z","epoch_age_seconds":109711,"freshness":"FRESH","line1":"1 66580U 25268Z   26263.22942401  .00011879  00000+0  44019-3 0  9997","line2":"2 66580  42.9937 328.2582 0002211 150.2672 209.8305 15.27602557 47716","mean_motion":15.27602557,"eccentricity":0.0002211,"inclination_deg":42.9937,"raan_deg":328.2582,"arg_perigee_deg":150.2672,"mean_anomaly_deg":209.8305,"bstar":0.00044019,"rev_number":4771,"period_min":94.265356744883,"perigee_km":481.46455978587,"apogee_km":484.49854641005,"semimajor_km":6861.118553098,"source":"CELESTRAK","updated_at":"2026-09-21T09:00:35.974248Z"}}}